Location: Croydon
(51.3762°N, 0.0982°W)
Time: 20:14:12
(UTC+01:00)

VELOX 1 - Pass Details

Date: 28 April 2019
Orbit: 629 x 644 km, 98.2° (Epoch: 21 May)

Event Time Altitude Azimuth Distance (km) Brightness Sun altitude
Exits shadow 01:27:37 46° 98° (E) 849 ? -24.3°
Maximum altitude 01:28:14 50° 69° (ENE) 805 ? -24.3°
Drops below altitude 10° 01:32:29 10° 354° (N) 2,023 ? -24.2°
Sets 01:34:44 0° 350° (N) 2,937 ? -24.1°
